RADARSAT-2

Last updated on Wed Sep 17 2025 00:02:30 GMT+0000 (Coordinated Universal Time)

1 32382U 07061A 25259.59167895 .00000069 00000+0 43872-4 0 9997 2 32382 98.5814 265.4270 0001215 89.8727 270.2595 14.29982417926858
UTC large
Height (km)
Speed (km/s)
/
Latitude / Longitude
Inclination (degrees)
Orbital Period (minutes)
Azimuth
Elevation
Range (km)
Doppler Factor

Next 0 passes for location: London (51.5072 / 0.1276)

Sorry there are no passes over London.